Location: Unspecified
(56.5167°N, 0.0000°E)
Time: 16:33:51
(UTC+02:00)

Cosmos 1674 - Visible Passes

Search period start: 22 May 2015 00:00
Search period end: 01 June 2015 00:00
Orbit: 507 x 532 km, 82.5° (Epoch: 21 May)

Date Brightness Start Highest point End Pass type
(mag) Time Alt. Az. Time Alt. Az. Time Alt. Az.
22 May 3.4 03:30:03 12° S 03:33:36 52° E 03:37:27 10° NNE visible
23 May 3.5 03:16:24 12° SSE 03:19:48 45° E 03:23:36 10° NNE visible
24 May 3.7 03:02:44 12° SSE 03:06:00 40° E 03:09:44 10° NNE visible
25 May 3.9 02:49:02 12° SSE 02:52:12 35° E 02:55:50 10° NNE visible
25 May 4.0 04:24:32 10° SW 04:28:05 30° WNW 04:31:36 10° N visible
26 May 4.1 02:35:19 12° SSE 02:38:23 31° E 02:41:55 10° NNE visible
26 May 3.8 04:10:34 10° SW 04:14:11 34° WNW 04:17:49 10° N visible
27 May 4.3 02:21:35 12° SE 02:24:35 28° E 02:27:59 10° NNE visible
27 May 3.7 03:56:40 10° SW 04:00:18 38° WNW 04:04:00 10° N visible
28 May 4.4 02:07:50 11° SE 02:10:45 25° E 02:14:02 10° NNE visible
28 May 3.5 03:42:55 12° SW 03:46:24 43° WNW 03:50:11 10° N visible
29 May 4.6 01:54:03 11° SE 01:56:56 22° E 02:00:02 10° NE visible
29 May 3.3 03:29:08 13° SSW 03:32:30 49° WNW 03:36:20 10° N visible
30 May 4.7 01:40:16 10° SE 01:43:07 20° E 01:46:01 10° NE visible
30 May 3.1 03:15:20 14° SSW 03:18:36 56° WNW 03:22:29 10° N visible
31 May 4.8 01:26:40 10° SE 01:29:16 18° E 01:31:58 10° NE visible
31 May 3.0 03:01:31 15° SSW 03:04:42 64° WNW 03:08:36 10° N visible
